Location: Alfortville
(48.8058°N, 2.4204°E)
Time: 13:30:01
(UTC+00:00)

Meteor 1-19 Rocket - Pass Details

Date: 13 December 2023
Orbit: 806 x 928 km, 81.2° (Epoch: 01 March)

Event Time Altitude Azimuth Distance (km) Brightness Sun altitude
Rises 20:33:26 0° 235° (SW) 3,530 7.8 -44.7°
Reaches altitude 10° 20:36:30 10° 251° (WSW) 2,608 7.1 -45.1°
Enters shadow 20:37:42 14° 261° (W) 2,316 6.9 -45.3°
